This is the latest recevied weather packets stored in our database for station/object W4JCW. If no packets are shown the sender has not sent any weather packets the latest 10 day(s).
| Time | Temp. | Humidity | Pressure | Rain* | Wind** | Luminosity | Snow |
|---|---|---|---|---|---|---|---|
| 1777312864 | 20° C | 53% | 1020.6 hPa | 0 mm | - | 967 W/m² | - |
| 1777312561 | 19.44° C | 54% | 1020.7 hPa | 0 mm | - | 981 W/m² | - |
| 1777312258 | 20° C | 53% | 1020.9 hPa | 0 mm | - | 910 W/m² | - |
| 1777311955 | 19.44° C | 54% | 1020.7 hPa | 0 mm | - | 614 W/m² | - |
| 1777311651 | 18.89° C | 55% | 1020.9 hPa | 0 mm | - | 147 W/m² | - |
| 1777311349 | 18.89° C | 55% | 1021.1 hPa | 0 mm | - | 229 W/m² | - |
| 1777311046 | 18.89° C | 56% | 1021.3 hPa | 0 mm | - | 137 W/m² | - |
| 1777310744 | 18.89° C | 55% | 1021.3 hPa | 0 mm | - | 157 W/m² | - |
| 1777310442 | 18.89° C | 57% | 1021.3 hPa | 0 mm | - | 281 W/m² | - |
| 1777310138 | 18.33° C | 56% | 1021.3 hPa | 0 mm | - | 433 W/m² | - |
| 1777309836 | 18.33° C | 57% | 1021.2 hPa | 0 mm | - | 182 W/m² | - |
| 1777309534 | 18.33° C | 57% | 1021.3 hPa | 0 mm | - | 119 W/m² | - |
| 1777309231 | 18.33° C | 57% | 1021.5 hPa | 0 mm | - | 450 W/m² | - |
| 1777308929 | 18.33° C | 58% | 1021.3 hPa | 0 mm | - | 182 W/m² | - |
| 1777308624 | 17.78° C | 58% | 1021.4 hPa | 0 mm | - | 343 W/m² | - |
| 1777308320 | 18.33° C | 57% | 1021.4 hPa | 0 mm | - | 247 W/m² | - |
| 1777308015 | 17.78° C | 57% | 1021.4 hPa | 0 mm | - | 175 W/m² | - |
| 1777307714 | 17.78° C | 59% | 1021.5 hPa | 0 mm | - | 160 W/m² | - |
| 1777307410 | 17.22° C | 58% | 1021.4 hPa | 0 mm | - | 167 W/m² | - |
| 1777307108 | 17.78° C | 60% | 1021.3 hPa | 0 mm | - | 591 W/m² | - |
| 1777306805 | 17.78° C | 58% | 1021.7 hPa | 0 mm | - | 206 W/m² | - |
| 1777306502 | 16.67° C | 61% | 1021.4 hPa | 0 mm | - | 1053 W/m² | - |
| 1777306197 | 16.67° C | 60% | 1021.5 hPa | 0 mm | - | 1029 W/m² | - |
| 1777305892 | 17.22° C | 59% | 1021.5 hPa | 0 mm | - | 1007 W/m² | - |
| 1777305589 | 17.22° C | 60% | 1021.3 hPa | 0 mm | - | 1055 W/m² | - |
* Rain latest hour (hover to see other rain measurements)
** Current wind speed in m/s (hover to see current wind gust speed)